Weather History for Pecos, TX

Change the Weather History Date:

Wednesday, May 22, 2013

  Actual Average Record
Temperature  
Mean Temperature 76 °F -  
Max Temperature 100 °F 94 °F 109 °F (1953)
Min Temperature 54 °F 57 °F 40 °F (1904)
Cooling Degree Days 12    
Growing Degree Days 26 (Base 50)    
Moisture  
Dew Point 38 °F    
Average Humidity 34    
Maximum Humidity 52    
Minimum Humidity 9    
Precipitation  
Precipitation 0.00 in - - ()
Sea Level Pressure  
Sea Level Pressure 29.85 in    
Wind  
Wind Speed 6 mph (ESE)    
Max Wind Speed 17 mph    
Max Gust Speed 18 mph    
Visibility 10 miles    
Events      
Averages and records for this station are not official NWS values.
T = Trace of Precipitation, MM = Missing Value Source: NWS Daily Summary

Daily Weather History Graph

Daily Weather History Graph

Search for Another Location

Airport:

Trip Planner

Search our weather history database for the weather conditions in past years. The results will help you decide how hot, cold, wet, or windy it might be!

Date:

Astronomy

May. 22, 2013 Rise Set
Actual Time 6:53 AM CDT 8:48 PM CDT
Civil Twilight 6:26 AM CDT 9:15 PM CDT
Nautical Twilight 5:54 AM CDT 9:47 PM CDT
Astronomical Twilight 5:19 AM CDT 10:22 PM CDT
Moon 6:20 PM CDT (5/22) 4:49 AM CDT (5/22)
Length of Visible Light 14h 48m
Length of Day
13h 54m
Waxing Gibbous, 91% of the Moon is Illuminated
May 22
Waxing Gibbous
May 24
Full
May 31
Last Quarter
Jun 8
New
Jun 16
First Quarter

Hourly Weather History & Observations

Time (CDT) Temp. Dew Point Humidity Pressure Visibility Wind Dir Wind Speed Gust Speed Precip Events Conditions
12:15 AM 64.4 °F 35.6 °F 34% 29.89 in 10.0 mi SE 6.9 mph - N/A   Clear
12:55 AM 64.0 °F 35.8 °F 35% 29.90 in 10.0 mi SE 3.5 mph - N/A   Clear
1:15 AM 63.9 °F 35.6 °F 35% 29.90 in 10.0 mi SSE 3.5 mph - N/A   Clear
1:35 AM 63.9 °F 36.0 °F 36% 29.89 in 10.0 mi Calm Calm - N/A   Clear
1:55 AM 62.4 °F 37.2 °F 39% 29.89 in 10.0 mi ESE 6.9 mph - N/A   Clear
2:15 AM 61.2 °F 36.9 °F 40% 29.88 in 10.0 mi ESE 6.9 mph - N/A   Clear
2:35 AM 59.9 °F 36.9 °F 42% 29.88 in 10.0 mi SE 6.9 mph - N/A   Clear
2:55 AM 61.7 °F 38.3 °F 42% 29.88 in 10.0 mi ESE 8.1 mph - N/A   Clear
3:15 AM 65.3 °F 38.8 °F 38% 29.87 in 10.0 mi ESE 10.4 mph - N/A   Clear
3:35 AM 65.8 °F 39.2 °F 38% 29.86 in 10.0 mi ESE 10.4 mph - N/A   Clear
3:55 AM 66.0 °F 39.4 °F 38% 29.86 in 10.0 mi SE 10.4 mph - N/A   Clear
4:15 AM 64.4 °F 39.2 °F 40% 29.86 in 10.0 mi ESE 9.2 mph - N/A   Clear
4:35 AM 63.7 °F 39.2 °F 41% 29.85 in 10.0 mi SE 8.1 mph - N/A   Clear
4:55 AM 62.4 °F 39.2 °F 42% 29.85 in 10.0 mi ESE 6.9 mph - N/A   Clear
5:15 AM 60.6 °F 39.2 °F 45% 29.86 in 10.0 mi East 4.6 mph - N/A   Clear
5:35 AM 59.2 °F 39.2 °F 48% 29.86 in 10.0 mi Calm Calm - N/A   Clear
5:55 AM 59.5 °F 39.4 °F 47% 29.86 in 10.0 mi SSE 3.5 mph - N/A   Clear
6:15 AM 59.2 °F 39.2 °F 48% 29.86 in 10.0 mi SE 3.5 mph - N/A   Clear
6:35 AM 56.3 °F 37.9 °F 50% 29.86 in 10.0 mi SSE 3.5 mph - N/A   Clear
7:15 AM 54.5 °F 37.2 °F 52% 29.87 in 10.0 mi Calm Calm - N/A   Clear
8:35 AM 64.0 °F 41.0 °F 43% 29.90 in 10.0 mi Calm Calm - N/A   Clear
8:55 AM 66.7 °F 41.5 °F 40% 29.90 in 10.0 mi ENE 3.5 mph - N/A   Clear
9:35 AM 72.5 °F 42.8 °F 34% 29.91 in 10.0 mi East 4.6 mph - N/A   Clear
12:15 PM 91.6 °F 37.4 °F 15% 29.88 in 10.0 mi ENE 6.9 mph - N/A   Clear
3:55 PM 99.5 °F 31.6 °F 9% 29.78 in 10.0 mi NNW 9.2 mph - N/A   Clear
5:35 PM 99.9 °F 32.0 °F 9% 29.73 in 10.0 mi South 8.1 mph - N/A   Clear
5:55 PM 99.7 °F 32.0 °F 9% 29.73 in 10.0 mi SSE 12.7 mph - N/A   Clear
6:35 PM 98.8 °F 32.9 °F 10% 29.73 in 10.0 mi East 11.5 mph 18.4 mph N/A   Clear
6:55 PM 96.6 °F 32.4 °F 10% 29.73 in 10.0 mi ESE 10.4 mph - N/A   Clear
7:15 PM 95.0 °F 32.9 °F 11% 29.73 in 10.0 mi East 8.1 mph - N/A   Clear
11:35 PM 82.6 °F 50.7 °F 33% 29.79 in 10.0 mi SE 17.3 mph - N/A   Clear